TA2LKM-12 Weather Reports


time (UTC)temp
C
wind
direction
speed
KPH
gust
KPH
rain 1hr
cm
rain 24hr
cm
rain mn
cm
humidity
%
barometer
mb
20260506090006 33 0 0.0 0.0 0.00 0.00 0.00 17 -170.9
20260506083004 29 0 0.0 0.0 0.00 0.00 0.00 20 999.4
20260506073005 32 0 0.0 0.0 0.00 0.00 0.00 20 999.5
20260506043004 10 0 0.0 0.0 0.00 0.00 0.00 93 999.7
20260506040004 8 0 0.0 0.0 0.00 0.00 0.00 10 999.6
20260506033004 8 0 0.0 0.0 0.00 0.00 0.00 99 999.4
20260506030004 8 0 0.0 0.0 0.00 0.00 0.00 99 999.1
20260506023005 8 0 0.0 0.0 0.00 0.00 0.00 95 999.0
20260506020006 7 0 0.0 0.0 0.00 0.00 0.00 89 999.0
20260506013006 6 0 0.0 0.0 0.00 0.00 0.00 89 998.8
20260506010003 7 0 0.0 0.0 0.00 0.00 0.00 89 998.8
20260506003006 7 0 0.0 0.0 0.00 0.00 0.00 10 998.9
20260506000005 7 0 0.0 0.0 0.00 0.00 0.00 89 998.8
20260505233003 8 0 0.0 0.0 0.00 0.00 0.00 88 998.9
20260505230002 9 0 0.0 0.0 0.00 0.00 0.00 89 999.0
20260505223005 10 0 0.0 0.0 0.00 0.00 0.00 88 999.2
20260505220004 11 0 0.0 0.0 0.00 0.00 0.00 85 999.2
20260505213003 11 0 0.0 0.0 0.00 0.00 0.00 83 999.3
20260505210004 11 0 0.0 0.0 0.00 0.00 0.00 83 999.3
20260505203004 11 0 0.0 0.0 0.00 0.00 0.00 83 999.2
20260505200003 12 0 0.0 0.0 0.00 0.00 0.00 80 999.1
20260505193003 12 0 0.0 0.0 0.00 0.00 0.00 79 999.1